EW0767 Weather Reports


time (UTC)temp
F
wind
direction
speed
knots
gust
knots
rain 1hr
in
rain 24hr
in
rain mn
in
humidity
%
barometer
mb
20260504141104 59 99 0.9 1.7 0.00 0.00 0.00 48 1010.8
20260504081104 42 232 0.0 0.0 0.00 0.00 0.00 70 1010.7
20260504045948 43 225 0.0 0.0 0.00 0.00 0.00 68 1011.0
20260504045305 43 215 0.0 0.0 0.00 0.00 0.00 70 1011.1
20260504044105 42 215 0.0 0.0 0.00 0.00 0.00 70 1011.0
20260504042947 43 215 0.0 0.0 0.00 0.00 0.00 68 1011.1
20260504042304 43 215 0.0 0.0 0.00 0.00 0.00 68 1011.0
20260504035950 43 215 0.0 0.0 0.00 0.00 0.00 64 1010.9
20260504035301 43 215 0.0 0.0 0.00 0.00 0.00 64 1010.9
20260504034101 43 215 0.0 0.0 0.00 0.00 0.00 64 1010.9
20260504032948 43 215 0.0 0.0 0.00 0.00 0.00 62 1010.9
20260504031103 42 82 0.0 0.0 0.00 0.00 0.00 65 1010.7
20260504025951 42 82 0.0 0.0 0.00 0.00 0.00 64 1010.6
20260504025304 42 82 0.0 0.0 0.00 0.00 0.00 62 1010.7
20260504024101 42 82 0.0 0.0 0.00 0.00 0.00 64 1010.8
20260504022304 43 82 0.0 0.0 0.00 0.00 0.00 59 1010.8
20260504021106 43 82 0.0 0.0 0.00 0.00 0.00 60 1010.7
20260504015947 43 82 0.0 0.0 0.00 0.00 0.00 59 1010.7
20260504015304 44 82 0.0 0.0 0.00 0.00 0.00 58 1010.6
20260504014104 44 82 0.0 0.0 0.00 0.00 0.00 57 1010.4
20260504012947 45 82 0.0 0.0 0.00 0.00 0.00 57 1010.2
20260504012305 45 82 0.0 0.0 0.00 0.00 0.00 52 1010.2
20260504011103 46 82 0.0 0.0 0.00 0.00 0.00 50 1010.1
20260504005950 47 82 0.0 0.0 0.00 0.00 0.00 50 1010.0
20260504005302 47 82 0.0 0.0 0.00 0.00 0.00 49 1009.9
20260504004101 47 82 0.0 0.0 0.00 0.00 0.00 49 1009.7
20260504002949 47 82 0.0 0.0 0.00 0.00 0.00 49 1009.6
20260504002305 47 82 0.0 0.0 0.00 0.00 0.00 49 1009.4
20260504001059 47 82 0.0 0.0 0.00 0.00 0.00 46 1009.3
20260503235304 48 205 0.0 0.0 0.00 0.00 0.00 50 1009.0
20260503234102 49 201 0.0 0.0 0.00 0.00 0.00 46 1008.9
20260503232956 49 151 0.0 0.0 0.00 0.00 0.00 45 1008.9
20260503232300 50 98 0.0 0.0 0.00 0.00 0.00 43 1008.6
20260503231100 51 295 0.0 0.0 0.00 0.00 0.00 43 1008.6
20260503225948 51 264 0.0 0.9 0.00 0.00 0.00 40 1008.6
20260503225305 51 193 0.0 0.0 0.00 0.00 0.00 42 1008.6
20260503224105 51 91 0.9 1.7 0.00 0.00 0.00 40 1008.5
20260503222304 52 232 0.0 0.9 0.00 0.00 0.00 42 1008.5
20260503221102 52 72 0.0 0.0 0.00 0.00 0.00 44 1008.5
20260503215950 52 124 0.9 2.6 0.00 0.00 0.00 40 1008.6
20260503215307 52 179 0.0 0.0 0.00 0.00 0.00 40 1008.5
20260503214102 53 210 0.0 0.9 0.00 0.00 0.00 41 1008.5
20260503212305 53 85 0.0 0.9 0.00 0.00 0.00 41 1008.3
20260503211105 53 143 0.9 3.5 0.00 0.00 0.00 40 1008.4
20260503205304 55 246 0.9 4.3 0.00 0.00 0.00 42 1008.4
20260503204103 54 257 1.7 3.5 0.00 0.00 0.00 42 1008.2
20260503202945 53 33 0.9 4.3 0.00 0.00 0.00 43 1008.5
20260503202308 53 71 0.0 0.0 0.00 0.00 0.00 44 1008.4
20260503201108 52 53 2.6 7.8 0.00 0.00 0.00 41 1008.4
20260503195946 51 53 1.7 3.5 0.00 0.00 0.00 45 1008.3
20260503192948 53 79 0.0 1.7 0.00 0.00 0.00 45 1008.6
20260503192305 53 91 0.0 0.9 0.00 0.00 0.00 44 1008.5
20260503191103 53 323 1.7 7.8 0.00 0.00 0.00 43 1008.6
20260503185946 53 16 1.7 7.8 0.00 0.00 0.00 41 1008.2
20260503185304 53 358 0.9 2.6 0.00 0.00 0.00 45 1008.5
20260503184103 52 172 0.9 2.6 0.00 0.00 0.00 46 1008.7
20260503182949 50 71 0.0 0.9 0.00 0.00 0.00 48 1008.8
20260503182300 50 204 0.0 2.6 0.00 0.00 0.00 46 1008.5
20260503181100 50 181 0.0 2.6 0.00 0.00 0.00 47 1008.7
20260503175947 51 204 2.6 6.1 0.00 0.00 0.00 45 1008.6
20260503175305 51 232 0.9 1.7 0.00 0.00 0.00 46 1008.5
20260503174105 50 15 4.3 11.3 0.00 0.00 0.00 42 1008.5
20260503172302 52 29 0.9 3.5 0.00 0.00 0.00 44 1008.3
20260503171102 52 235 0.9 2.6 0.00 0.00 0.00 49 1008.3